Retour au catalogue

COSMOS 970 DEB

ActifLEO
NORAD 65006·DEBRIS·🇷🇺 Russia

Lancé Dec 21, 1977 depuis Baikonur Cosmodrome

Loading…

Prochains Passages (prochaines 24 heures)

TLE

FraisSource: Space-Track

Époque: Sep 14, 2026, 06:13 UTC

1 65006U 77121DT  26257.25944289  .00000145  00000-0  22905-3 0  9991
2 65006  65.4939 195.0882 0134059 234.9042 123.9389 13.73574254641832

Suivez COSMOS 970 DEB en temps réel avec AllMySat

Download on the App Store